Notices

What's New in latest Release from April 7th, 2021:

- Updated Glossary, including Speed of Maximum Gust, and Total Hourly Precipitation

- Updated national and regional climate services offices contacts and prices information

- Addition of station inventory lists for 1981-2010, 1971-2000, and 1961-1990 Normals.

If you haven't already, please take our survey and provide feedback about our website: https://eccc.sondage-survey.ca/f/LanguageSelection.aspx?s=442ca660-fcf1-47c0-95a9-59707d6fd709

Hourly Data Report for March 02, 2010

HALIFAX STANFIELD INT'L A
NOVA SCOTIA

44°52'48.060" N
63°30'00.050" W
145.40 m
8202250
71395
YHZ

Download Data

Hourly Data (March 2010)
Hourly Data Report for March 2, 2010
TIME
LST
Temp Definition
°C
Dew Point Definition
°C
Rel Hum Definition
%
Precip. Amount Definition
mm

Wind Dir Definition
10's deg

Wind Spd Definition
km/h
Visibility Definition
km
Stn Press Definition
kPa
Hmdx Definition


Wind Chill Definition


Weather Definition


00:00 0.4 -0.6 93   35 32 24.1 97.88     Cloudy
01:00 0.3 -0.9 92   36 30 24.1 97.93     Snow Showers
02:00 0.2 -0.7 94   35 28 24.1 97.97     Snow Showers
03:00 0.2 -0.7 94   34 26 24.1 98.03     Snow Showers
04:00 0.3 -1.0 91   35 28 24.1 98.06     Cloudy
05:00 0.3 -1.2 90   34 30 24.1 98.14     Cloudy
06:00 -0.2 -1.0 94   35 32 3.2 98.23   -7 Snow Showers,Fog
07:00 -0.5 -1.7 92   35 28 4.8 98.29   -7 Snow Showers,Fog
08:00 -0.5 -1.8 91   35 32 4.8 98.37   -7 Snow Showers,Fog
09:00 -0.5 -2.3 88   35 32 6.4 98.46   -7 Snow Showers,Fog
10:00 0.2 -1.6 88   35 35 4.8 98.50     Snow Showers,Fog
11:00 0.8 -1.8 83   36 41 4.8 98.56     Snow Showers,Fog
12:00 0.2 -1.7 87   35 33 3.2 98.64     Snow Showers
13:00 0.3 -1.9 85   36 41 4.8 98.66     Snow Showers
14:00 0.0 -2.5 83   35 39 4.8 98.73   -7 Snow Showers
15:00 -0.3 -2.6 84   35 35 19.3 98.78   -7 Snow Showers
16:00 -0.7 -2.5 88   35 39 16.1 98.85   -8 Snow Showers
17:00 -0.9 -3.1 85   35 32 24.1 98.91   -8 Snow Showers
18:00 -1.4 -3.8 84   34 37 24.1 98.92   -9 Snow Showers
19:00 -1.7 -3.9 85   35 39 24.1 98.98   -10 Snow Showers
20:00 -1.9 -3.9 86   35 43 24.1 98.97   -10 Snow Showers
21:00 -2.0 -3.9 87   34 37 24.1 99.07   -10 Snow Showers
22:00 -2.1 -3.9 87   34 39 24.1 99.08   -10 Snow Showers
23:00 -2.1 -3.7 89   35 24 16.1 99.09   -8 Snow Showers

Notes on Data Quality.

Legend

  • E = Estimated
  • M = Missing
  • NA = Not Available*
  • [empty] = Indicates an unobserved value
Date modified: